Weather History for KCBM - February, 2014

Change the Weather History Date:

Friday, February 21, 2014

  Actual Average Record
Temperature  
Mean Temperature 47 °F -  
Max Temperature 59 °F 58 °F 78 °F (1997)
Min Temperature 35 °F 39 °F 26 °F (1999)
Degree Days  
Heating Degree Days 18    
Moisture  
Dew Point 36 °F    
Average Humidity 80    
Maximum Humidity 100    
Minimum Humidity 20    
Precipitation  
Precipitation 0.11 in - - ()
Sea Level Pressure  
Sea Level Pressure 30.07 in    
Wind  
Wind Speed 8 mph (NW)    
Max Wind Speed 20 mph    
Max Gust Speed 26 mph    
Visibility 6 miles    
Events Rain , Thunderstorm    
Averages and records for this station are not official NWS values.
T = Trace of Precipitation, MM = Missing Value Source: NWS Daily Summary

Daily Weather History Graph

Daily Weather History Graph

Search for Another Location

Airport or City:

Trip Planner

Search our weather history database for the weather conditions in past years. The results will help you decide how hot, cold, wet, or windy it might be!

Date:

Astronomy

Feb. 21, 2014 Rise Set
Actual Time 6:31 AM CST 5:43 PM CST
Civil Twilight 6:06 AM CST 6:08 PM CST
Nautical Twilight 5:37 AM CST 6:37 PM CST
Astronomical Twilight 5:08 AM CST 7:06 PM CST
Moon No Moon Rise 10:14 AM CST (2/21)
Length of Visible Light 12h 02m
Length of Day
11h 12m
Waning Gibbous, 60% of the Moon is Illuminated
Feb 21
Waning Gibbous
Feb 22
Last Quarter
Mar 1
New
Mar 8
First Quarter
Mar 16
Full

Hourly Weather History & Observations

Time (CST) Temp. Windchill Dew Point Humidity Pressure Visibility Wind Dir Wind Speed Gust Speed Precip Events Conditions
12:03 AM 48.2 °F - 41.0 °F 76% 29.94 in 5.0 mi North 19.6 mph - N/A Rain , Thunderstorm Thunderstorms and Rain
12:04 AM 48.2 °F - 42.8 °F 82% 29.92 in 6.0 mi North 18.4 mph 25.3 mph N/A Rain Rain
12:08 AM 48.2 °F - 41.0 °F 76% 29.96 in 7.0 mi NNW 18.4 mph 25.3 mph N/A Rain , Thunderstorm Thunderstorms and Rain
12:13 AM 48.2 °F - 41.0 °F 76% 29.97 in 7.0 mi NW 18.4 mph 25.3 mph N/A Rain , Thunderstorm Thunderstorms and Rain
12:18 AM 48.2 °F - 41.0 °F 76% 29.97 in 7.0 mi NW 15.0 mph 26.5 mph N/A Rain , Thunderstorm Light Thunderstorms and Rain
12:23 AM 48.2 °F - 42.8 °F 82% 29.98 in 9.0 mi NNW 16.1 mph 26.5 mph N/A Rain Light Rain
12:28 AM 48.2 °F - 41.0 °F 76% 29.95 in 10.0 mi NNW 17.3 mph - N/A Rain Light Rain
12:46 AM 46.4 °F 40.1 °F 42.8 °F 87% 29.97 in 9.0 mi NNW 15.0 mph - N/A Rain Light Rain
12:58 AM 46.6 °F - 41.9 °F 84% 29.99 in 10.0 mi NW 15.0 mph - 0.10 in Rain Light Rain
1:06 AM 46.4 °F 40.7 °F 41.0 °F 81% 30.00 in 10.0 mi NNW 12.7 mph - N/A   Mostly Cloudy
1:58 AM 46.6 °F - 41.4 °F 82% 30.04 in 10.0 mi NW 6.9 mph - 0.01 in   Overcast
2:58 AM 43.9 °F 42.3 °F 39.7 °F 85% 30.05 in 10.0 mi NW 3.5 mph - N/A   Clear
3:58 AM 39.7 °F - 38.8 °F 97% 30.06 in 10.0 mi West 1.2 mph - N/A   Clear
4:38 AM 39.2 °F - 39.2 °F 100% 30.06 in 3.0 mi WNW 2.3 mph - N/A   Clear
4:43 AM 39.2 °F - 39.2 °F 100% 30.06 in 3.0 mi WNW 1.2 mph - N/A   Clear
4:48 AM 39.2 °F - 39.2 °F 100% 30.06 in 6.0 mi NW 1.2 mph - N/A   Clear
4:53 AM 39.2 °F - 37.4 °F 93% 30.07 in 1.5 mi Calm Calm - N/A   Clear
4:58 AM 39.2 °F - 37.4 °F 93% 30.08 in 1.0 mi Calm Calm - N/A   Clear
5:03 AM 39.2 °F - 37.4 °F 93% 30.07 in 1.8 mi Calm Calm - N/A   Clear
5:08 AM 39.2 °F - 37.4 °F 93% 30.07 in 5.0 mi Calm Calm - N/A   Clear
5:13 AM 39.2 °F - 37.4 °F 93% 30.07 in 3.0 mi WNW 1.2 mph - N/A   Clear
5:18 AM 37.4 °F - 37.4 °F 100% 30.07 in 1.0 mi Calm Calm - N/A   Clear
5:23 AM 37.4 °F - 37.4 °F 100% 30.08 in 0.8 mi Calm Calm - N/A   Clear
5:28 AM 37.4 °F - 37.4 °F 100% 30.08 in 1.0 mi WNW 1.2 mph - N/A   Clear
5:33 AM 37.4 °F - 37.4 °F 100% 30.08 in 2.0 mi West 2.3 mph - N/A   Clear
5:38 AM 37.4 °F - 37.4 °F 100% 30.08 in 1.0 mi Calm Calm - N/A   Clear
5:43 AM 37.4 °F - 37.4 °F 100% 30.09 in 1.2 mi Calm Calm - N/A   Clear
5:48 AM 37.4 °F - 37.4 °F 100% 30.09 in 1.5 mi Calm Calm - N/A   Clear
5:53 AM 37.4 °F - 37.4 °F 100% 30.09 in 1.8 mi Calm Calm - N/A   Clear
5:58 AM 36.9 °F - 36.7 °F 99% 30.10 in 3.0 mi Calm Calm - N/A   Clear
6:03 AM 35.6 °F - 35.6 °F 100% 30.09 in 7.0 mi Calm Calm - N/A   Clear
6:08 AM 35.6 °F - 35.6 °F 100% 30.09 in 3.0 mi Calm Calm - N/A   Clear
6:18 AM 37.4 °F - 37.4 °F 100% 30.09 in 8.0 mi Calm Calm - N/A   Clear
6:53 AM 37.4 °F - 37.4 °F 100% 30.10 in 1.8 mi Calm Calm - N/A   Clear
6:58 AM 37.4 °F - 37.4 °F 100% 30.11 in 1.0 mi Calm Calm - N/A   Clear
7:03 AM 37.4 °F - 37.4 °F 100% 30.10 in 1.8 mi Calm Calm - N/A   Clear
7:08 AM 37.4 °F - 37.4 °F 100% 30.10 in 6.0 mi Calm Calm - N/A   Clear
7:58 AM 41.7 °F - 41.7 °F 100% 30.13 in 10.0 mi Variable 1.2 mph - N/A   Clear
8:58 AM 49.5 °F - 37.8 °F 64% 30.15 in 10.0 mi WNW 10.4 mph - N/A   Clear
9:58 AM 52.3 °F - 30.9 °F 44% 30.15 in 10.0 mi NW 12.7 mph - N/A   Clear
10:58 AM 54.1 °F - 27.9 °F 36% 30.15 in 10.0 mi NW 12.7 mph - N/A   Clear
11:58 AM 55.6 °F - 25.5 °F 31% 30.14 in 10.0 mi Variable 3.5 mph - N/A   Clear
12:58 PM 56.3 °F - 20.5 °F 25% 30.11 in 10.0 mi Variable 5.8 mph - N/A   Clear
1:58 PM 58.3 °F - 22.3 °F 25% 30.10 in 10.0 mi WNW 4.6 mph - N/A   Clear
2:58 PM 57.7 °F - 17.4 °F 21% 30.10 in 10.0 mi Variable 1.2 mph - N/A   Clear
3:58 PM 59.0 °F - 19.8 °F 22% 30.10 in 10.0 mi Variable 3.5 mph - N/A   Clear
4:58 PM 58.6 °F - 17.6 °F 20% 30.10 in 10.0 mi Calm Calm - N/A   Clear
5:58 PM 52.3 °F - 28.0 °F 39% 30.10 in 10.0 mi SSW 2.3 mph - 0.00 in   Clear
6:58 PM 47.5 °F - 32.7 °F 57% 30.12 in 10.0 mi Calm Calm - N/A   Clear
7:58 PM 43.2 °F - 34.5 °F 72% 30.12 in 10.0 mi Calm Calm - N/A   Clear
8:58 PM 39.9 °F - 37.4 °F 91% 30.13 in 10.0 mi Calm Calm - N/A   Clear
9:58 PM 40.1 °F - 32.2 °F 73% 30.14 in 10.0 mi Calm Calm - N/A   Clear
10:58 PM 38.7 °F - 36.7 °F 93% 30.13 in 10.0 mi Calm Calm - N/A   Clear
11:58 PM 37.6 °F - 36.3 °F 95% 30.13 in 10.0 mi Calm Calm - N/A   Clear